Weather Roundup
Issued by NWS Chicago, IL

Home | Current Version | Previous Version | Graphics & Text | Print | Product List | Glossary On
Versions: 1 2 3 4 5 6 7 8 9 10 11 12 13 14 15 16 17 18 19 20 21 22 23 24 25 26 27 28 29 30 31 32 33 34 35 36 37 38 39 40 41 42 43 44 45 46 47 48 49 50
000
NZUS59 KLOT 262209
HRRLOT

CHICAGO AREA WEATHER ROUNDUP
NATIONAL WEATHER SERVICE CHICAGO/ROMEOVILLE IL
500 PM CDT MON SEP 26 2016

NOTE: "FAIR" INDICATES FEW OR NO CLOUDS BELOW 12,000 FEET WITH NO
SIGNIFICANT WEATHER AND/OR OBSTRUCTIONS TO VISIBILITY.

* THESE STATIONS ARE NOT UNDER NWS QUALITY CONTROL. THEY ALSO MAY NOT
  REPORT WEATHER SUCH AS PRECIPITATION OR FOG.

ILZ005-006-012>014-019>023-262300-
NORTHEAST ILLINOIS

CITY           SKY/WX    TMP DP  RH WIND       PRES   REMARKS
OHARE          MOSUNNY   69  32  25 W22G31    29.92S
MIDWAY         MOSUNNY   71  31  22 W18G29    29.93S
AURORA         SUNNY     70  34  26 W24G32    29.94F
LANSING*       SUNNY     70  38  31 W22G28    29.94S
JOLIET*        SUNNY     72  32  23 W12G25    29.95F
WAUKEGAN       SUNNY     67  35  30 W12G23    29.89S
DUPAGE AIRPORT SUNNY     69  33  26 W14G35    29.93S
WHEELING       SUNNY     68  31  25 W17G30    29.92S
KANKAKEE*      SUNNY     71  31  22 W17G24    29.97S
MORRIS*        SUNNY     71  30  22 W15G26    29.95S
LEWIS AIRPORT* SUNNY     69  39  33 W20G29    29.95S
NORTHERLY ISL    N/A     70  30  22 W18         N/A
$$

WIZ051-052-058>065-066-070>072-262300-
SOUTHEAST WISCONSIN

CITY           SKY/WX    TMP DP  RH WIND       PRES   REMARKS
MILWAUKEE      MOSUNNY   66  35  31 W18G29    29.87F
KENOSHA*       MOSUNNY   67  36  31 W20G31    29.89S
RACINE*        MOSUNNY   66  35  31 W16G28    29.89F
BURLINGTON     MOSUNNY   65  33  30 W13G25    29.89S
WAUKESHA       PTSUNNY   63  36  36 W12G29    29.88F
WEST BEND      CLOUDY    63  34  34 W17       29.85S
$$

INZ001>003-010>013-019-020-262300-
NORTHWEST INDIANA

CITY           SKY/WX    TMP DP  RH WIND       PRES   REMARKS
GARY*          SUNNY     72  30  21 W32       29.94S
MICHIGAN CITY* NOT AVBL
RENSSELAER*    NOT AVBL
VALPARAISO     SUNNY     69  37  30 W13G25    29.94F
$$

LMZ740>746-262300-
SOUTHERN LAKE MICHIGAN

STATION/POSITION TIME  SKY/WX   TEMP WIND        PRES    VSBY
                                AIR  DIR/SP/G
                 (UTC)          (F)  (DEG/KT/KT) (MB)    (MI)
HARRISON CRIB    2100            68  270/ 20/ 25   N/A
BURNHAM HARBOR   2200            70  260/  7/ 19   N/A
CALUMET HARBOR   2100            70  250/ 10/ 23 1012.9F
BURNS HARBOR     2102            68  260/ 20     1013.9F
MICHIGAN CITY    2100            67  240/ 24/ 25   N/A
$$

ABBREVIATIONS USED IN REMARKS
   TC - TEMPERATURE IN CELSIUS
  WCI - WIND CHILL INDEX
   HX - HEAT INDEX
  VSB - VISIBILITY
$$




USA.gov is the U.S. government's official web portal to all federal, state and local government web resources and services.